Weather History for Winner, SD

Change the Weather History Date:

Wednesday, August 1, 2012

  Actual Average Record
Temperature  
Mean Temperature 85 °F 76 °F  
Max Temperature 103 °F 89 °F 103 °F (2011)
Min Temperature 66 °F 64 °F 62 °F (2014)
Degree Days  
Heating Degree Days 0 0  
Month to date heating degree days 0 0  
Since 1 June heating degree days 8 59  
Since 1 July heating degree days 0 5  
Cooling Degree Days 20 12  
Month to date cooling degree days 20 12  
Year to date cooling degree days 1015 518  
Since 1 June cooling degree days 918 488  
Growing Degree Days 36 (Base 50)    
Moisture  
Dew Point 63 °F    
Average Humidity 54    
Maximum Humidity 87    
Minimum Humidity 21    
Precipitation  
Precipitation 0.05 in 0.08 in 0.16 in (2014)
Month to date precipitation 0.05 0.08  
Year to date precipitation 9.82 14.76  
Sea Level Pressure  
Sea Level Pressure 29.83 in    
Wind  
Wind Speed 12 mph (South)    
Max Wind Speed 43 mph    
Max Gust Speed 53 mph    
Visibility 10 miles    
Events Rain , Thunderstorm    
T = Trace of Precipitation, MM = Missing Value Source: NWS Daily Summary

Daily Weather History Graph

Daily Weather History Graph

Search for Another Location

Airport:

Trip Planner

Search our weather history database for the weather conditions in past years. The results will help you decide how hot, cold, wet, or windy it might be!

Date:

Astronomy

Aug. 01, 2012 Rise Set
Actual Time 6:29 AM CDT 9:00 PM CDT
Civil Twilight 5:57 AM CDT 9:33 PM CDT
Nautical Twilight 5:16 AM CDT 10:13 PM CDT
Astronomical Twilight 4:30 AM CDT 10:59 PM CDT
Moon 8:29 PM CDT (8/1) 6:01 AM CDT (8/1)
Length of Visible Light 15h 35m
Length of Day
14h 31m
Full, 100% of the Moon is Illuminated
Aug 1
Full
Aug 1
Full
Aug 9
Last Quarter
Aug 17
New
Aug 24
First Quarter

Hourly Weather History & Observations

Time (CDT) Temp. Heat Index Dew Point Humidity Pressure Visibility Wind Dir Wind Speed Gust Speed Precip Events Conditions
12:53 AM 82.9 °F 84.0 °F 63.0 °F 51% 29.84 in 10.0 mi South 15.0 mph - N/A   Clear
1:53 AM 82.0 °F 83.1 °F 63.0 °F 52% 29.85 in 10.0 mi South 16.1 mph - N/A   Clear
2:53 AM 80.1 °F 81.5 °F 63.0 °F 56% 29.85 in 10.0 mi SSW 13.8 mph - N/A   Clear
3:53 AM 79.0 °F - 63.0 °F 58% 29.84 in 10.0 mi SSW 13.8 mph - N/A   Clear
4:53 AM 79.0 °F - 61.0 °F 54% 29.83 in 10.0 mi SSW 13.8 mph - N/A   Clear
5:53 AM 78.1 °F - 61.0 °F 56% 29.82 in 10.0 mi South 12.7 mph - N/A   Clear
6:53 AM 77.0 °F - 61.0 °F 58% 29.82 in 10.0 mi South 15.0 mph 23.0 mph N/A   Clear
7:53 AM 79.0 °F - 62.1 °F 56% 29.83 in 10.0 mi SSW 16.1 mph - N/A   Clear
8:53 AM 82.9 °F 84.0 °F 63.0 °F 51% 29.83 in 10.0 mi SW 10.4 mph - N/A   Clear
9:53 AM 88.0 °F 89.3 °F 64.0 °F 45% 29.84 in 10.0 mi WSW 8.1 mph - N/A   Clear
11:53 AM 95.0 °F 96.0 °F 63.0 °F 34% 29.82 in 10.0 mi SSW 17.3 mph 23.0 mph N/A   Clear
12:53 PM 98.1 °F 98.1 °F 60.1 °F 28% 29.80 in 10.0 mi SW 12.7 mph 19.6 mph N/A   Clear
2:53 PM 100.9 °F 101.0 °F 59.0 °F 25% 29.76 in 10.0 mi SSW 10.4 mph - N/A   Clear
3:53 PM 102.0 °F 101.1 °F 55.9 °F 22% 29.72 in 10.0 mi South 10.4 mph 20.7 mph N/A   Clear
4:53 PM 100.0 °F 99.2 °F 57.0 °F 24% 29.73 in 10.0 mi SE 3.5 mph - N/A   Partly Cloudy
5:48 PM 80.6 °F 81.8 °F 62.6 °F 54% 29.87 in 10.0 mi North 35.7 mph 52.9 mph N/A Thunderstorm Mostly Cloudy
5:53 PM 75.9 °F - 64.0 °F 67% 29.83 in 5.0 mi North 39.1 mph 52.9 mph 0.01 in Rain , Thunderstorm Rain
6:11 PM 71.6 °F - 64.4 °F 78% 29.86 in 8.0 mi NNE 36.8 mph 48.3 mph 0.03 in Rain , Thunderstorm Light Rain
6:32 PM 71.6 °F - 64.4 °F 78% 29.87 in 10.0 mi NE 23.0 mph 39.1 mph 0.03 in Rain Light Rain
6:51 PM 69.8 °F - 64.4 °F 83% 29.89 in 10.0 mi NE 13.8 mph 25.3 mph 0.03 in Rain , Thunderstorm Light Thunderstorms and Rain
6:53 PM 70.0 °F - 64.0 °F 81% 29.86 in 10.0 mi NE 10.4 mph 24.2 mph 0.03 in Rain , Thunderstorm Light Thunderstorms and Rain
7:32 PM 71.6 °F - 64.4 °F 78% 29.86 in 10.0 mi North 12.7 mph 25.3 mph 0.01 in Rain Light Rain
7:53 PM 72.0 °F - 66.0 °F 81% 29.83 in 10.0 mi East 8.1 mph - 0.01 in   Partly Cloudy
8:53 PM 71.1 °F - 66.0 °F 84% 29.81 in 10.0 mi SE 9.2 mph - N/A   Clear
9:53 PM 71.1 °F - 66.0 °F 84% 29.84 in 10.0 mi South 9.2 mph - N/A   Clear
10:53 PM 70.0 °F - 64.9 °F 84% 29.88 in 10.0 mi North 9.2 mph - N/A   Clear